Regional Weather Roundup
Issued by NWS

Home | Current Version | Previous Version | Graphics & Text | Print | Product List | Glossary On
Versions: 1 2 3 4 5 6 7 8 9 10 11 12 13 14 15 16 17 18 19 20 21 22 23 24 25 26 27 28 29 30 31 32 33 34 35 36 37 38 39 40 41 42 43 44 45 46 47 48 49 50
701
ASUS44 KMEG 051900
RWRTN
TENNESSEE HOURLY STATE WEATHER ROUNDUP
NATIONAL WEATHER SERVICE MEMPHIS TN
200 PM CDT THU MAY 05 2016

TNZ002-004-019-021-049-052-054-088>092-052000-
WEST TENNESSEE

CITY           SKY/WX    TMP DP  RH WIND       PRES   REMARKS
MEMPHIS INTL   SUNNY     72  38  29 NW18G30   29.95F
NWS MEMPHIS      N/A     70 N/A N/A MISG        N/A
JACKSON        MOSUNNY   67  42  40 N22G29    29.93S
DYERSBURG      SUNNY     64  39  39 N16G24    29.96S
UNION CITY     PTSUNNY   63  43  48 N15       29.94R
LEXINGTON      MOSUNNY   64  39  39 NW15      29.90S
$$

TNZ008-025-027-028-033-062-065-066-052000-
NORTH MIDDLE TENNESSEE

CITY           SKY/WX    TMP DP  RH WIND       PRES   REMARKS
NASHVILLE      PTSUNNY   56  37  49 N15G22    29.92R
CLARKSVILLE    CLOUDY    56  41  57 N18G24    29.94S
COOKEVILLE     CLOUDY    48  43  81 N10       29.87R
CROSSVILLE     LGT RAIN  45  40  82 N13G25    29.84R
$$

TNZ061-075-076-078-094-096-097-052000-
SOUTH MIDDLE TENNESSEE

CITY           SKY/WX    TMP DP  RH WIND       PRES   REMARKS
TULLAHOMA      MOSUNNY   57  39  51 N21       29.86R
WINCHESTER     PTSUNNY   57  39  51 N17       29.85R
MCMINNVILLE    PTSUNNY   54  43  66 N14       29.88R
COLUMBIA       MOSUNNY   63  45  51 N10       29.87R
SHELBYVILLE    PTSUNNY   59  43  55 N23G30    29.89R
$$

TNZ017-018-042-046-047-052000-
NORTHEAST TENNESSEE

CITY           SKY/WX    TMP DP  RH WIND       PRES   REMARKS
TRI CITIES     PTSUNNY   53  40  61 VRB6      29.74R
$$

TNZ012-013-036-069-073-074-052000-
CENTRAL EAST TENNESSEE

CITY           SKY/WX    TMP DP  RH WIND       PRES   REMARKS
KNOXVILLE      PTSUNNY   53  46  77 W8        29.78R
OAK RIDGE      CLOUDY    56  40  55 NW10G17   29.80R
GATLINBURG     MOCLDY    48  43  81 VRB3      29.77S
$$

TNZ083-085-099-052000-
SOUTHEAST TENNESSEE

CITY           SKY/WX    TMP DP  RH WIND       PRES   REMARKS
CHATTANOOGA    CLOUDY    60  40  47 NW22G29   29.80R
$$

SKY/WX REPORTED AS FAIR MEANS FEW OR NO CLOUDS BELOW
12 THOUSAND FEET.





USA.gov is the U.S. government's official web portal to all federal, state and local government web resources and services.